FW6321 Weather Reports


time (UTC)temp
C
wind
direction
speed
KPH
gust
KPH
rain 1hr
cm
rain 24hr
cm
rain mn
cm
humidity
%
barometer
mb
20260505101903 11 355 12.9 24.1 0.00 0.46 0.00 90 1012.4
20260505101407 11 10 11.3 22.5 0.00 0.46 0.00 90 1012.5
20260505100928 11 8 11.3 24.1 0.00 0.46 0.00 90 1012.5
20260505095905 11 7 11.3 20.9 0.00 0.46 0.00 90 1012.5
20260505095359 11 17 14.5 24.1 0.00 0.46 0.00 90 1012.6
20260505094901 11 30 14.5 24.1 0.00 0.46 0.00 90 1012.6
20260505094402 11 20 12.9 24.1 0.00 0.46 0.00 90 1012.6
20260505093901 11 340 12.9 27.4 0.00 0.46 0.00 90 1012.6
20260505093402 11 23 14.5 27.4 0.00 0.46 0.00 90 1012.6
20260505092948 11 16 11.3 24.1 0.00 0.46 0.00 90 1012.7
20260505091903 11 18 12.9 25.7 0.00 0.46 0.00 91 1012.8
20260505091430 10 5 14.5 25.7 0.00 0.46 0.00 91 1012.8
20260505090400 10 19 11.3 25.7 0.00 0.46 0.00 91 1012.9
20260505085858 10 13 11.3 20.9 0.00 0.46 0.00 92 1012.9
20260505085400 10 16 12.9 22.5 0.00 0.46 0.00 92 1012.9
20260505084858 10 49 12.9 24.1 0.00 0.46 0.00 92 1012.9
20260505084400 10 8 11.3 24.1 0.00 0.46 0.00 92 1012.8
20260505083858 10 6 9.7 20.9 0.00 0.46 0.00 93 1012.8
20260505083358 10 53 11.3 20.9 0.00 0.46 0.00 93 1012.7
20260505082900 10 4 12.9 24.1 0.00 0.46 0.00 94 1012.7
20260505082357 10 330 11.3 24.1 0.00 0.46 0.00 94 1012.7
20260505081933 10 10 12.9 22.5 0.00 0.46 0.00 94 1012.6
20260505080901 10 351 12.9 24.1 0.00 0.46 0.00 94 1012.6
20260505080356 10 20 11.3 20.9 0.00 0.46 0.00 94 1012.6
20260505075858 10 40 11.3 20.9 0.00 0.46 0.00 95 1012.6
20260505075355 10 345 12.9 22.5 0.00 0.46 0.00 95 1012.7
20260505074852 10 8 12.9 22.5 0.00 0.46 0.00 95 1012.6
20260505074429 10 345 14.5 24.1 0.00 0.46 0.00 95 1012.6
20260505073352 10 6 12.9 25.7 0.00 0.46 0.00 95 1012.7
20260505072854 10 6 12.9 25.7 0.00 0.46 0.00 95 1012.7
20260505072422 10 335 16.1 25.7 0.00 0.46 0.00 95 1012.7
20260505071354 10 9 12.9 25.7 0.00 0.46 0.00 95 1012.7
20260505070959 10 16 12.9 27.4 0.00 0.46 0.00 95 1012.6
20260505065350 10 4 12.9 25.7 0.00 0.46 0.00 96 1012.8
20260505064850 10 352 12.9 27.4 0.00 0.46 0.00 96 1012.8
20260505064350 10 9 12.9 27.4 0.00 0.46 0.00 96 1012.9
20260505063849 10 335 11.3 24.1 0.00 0.46 0.00 96 1012.9
20260505063352 10 2 9.7 24.1 0.00 0.46 0.00 96 1012.8
20260505062853 10 12 12.9 22.5 0.00 0.46 0.00 96 1012.9
20260505062348 10 341 14.5 24.1 0.00 0.46 0.00 96 1012.9
20260505061850 10 356 14.5 24.1 0.00 0.46 0.00 95 1012.9
20260505061349 10 5 12.9 20.9 0.00 0.46 0.00 95 1012.9
20260505060849 10 330 12.9 25.7 0.00 0.46 0.00 95 1013.0
20260505060507 10 1 12.9 25.7 0.00 0.46 0.00 95 1013.1
20260505054851 10 341 14.5 25.7 0.00 0.46 0.00 95 1013.2
20260505054347 10 354 14.5 24.1 0.00 0.46 0.00 95 1013.2
20260505053915 10 354 12.9 24.1 0.00 0.46 0.00 95 1013.1
20260505052843 10 0 12.9 27.4 0.00 0.46 0.00 95 1013.1
20260505052346 10 1 12.9 22.5 0.00 0.46 0.00 95 1013.1
20260505051842 10 20 11.3 20.9 0.00 0.46 0.00 95 1012.9
20260505051341 10 345 14.5 22.5 0.00 0.46 0.00 95 1013.0
20260505050842 10 25 14.5 22.5 0.00 0.46 0.00 95 1012.7
20260505050420 10 350 14.5 22.5 0.00 0.46 0.00 95 1012.8
20260505041339 10 16 9.7 17.7 0.00 0.46 0.00 94 1012.5
20260505040838 10 16 11.3 19.3 0.00 0.46 0.00 94 1012.6
20260505040337 10 335 11.3 20.9 0.00 0.46 0.00 94 1012.6
20260505035839 10 318 9.7 20.9 0.00 0.46 0.00 94 1012.6
20260505035341 10 31 11.3 22.5 0.00 0.46 0.00 94 1012.6
20260505034909 10 352 12.9 22.5 0.00 0.46 0.00 94 1012.6
20260505033837 10 10 9.7 17.7 0.00 0.46 0.00 94 1012.7
20260505033342 10 0 11.3 25.7 0.00 0.46 0.00 93 1012.7
20260505032843 10 353 11.3 25.7 0.00 0.46 0.00 93 1012.8
20260505032429 10 314 12.9 24.1 0.00 0.46 0.00 93 1012.9
20260505031342 10 18 9.7 20.9 0.00 0.46 0.00 93 1012.8
20260505030842 10 330 11.3 19.3 0.00 0.46 0.00 93 1012.8
20260505030346 10 325 12.9 20.9 0.00 0.46 0.00 93 1012.9
20260505025842 10 353 12.9 24.1 0.00 0.46 0.00 93 1012.9
20260505025337 10 315 11.3 24.1 0.00 0.46 0.00 93 1012.8
20260505024839 10 15 12.9 22.5 0.00 0.46 0.00 93 1012.9
20260505024336 10 335 11.3 22.5 0.00 0.46 0.00 93 1012.9
20260505023908 10 330 12.9 22.5 0.00 0.46 0.00 93 1013.1
20260505022839 10 345 14.5 22.5 0.00 0.46 0.00 93 1012.9
20260505022421 10 4 14.5 27.4 0.00 0.46 0.00 93 1012.9
20260505021335 10 344 11.3 22.5 0.00 0.46 0.00 93 1012.9
20260505020833 10 335 12.9 25.7 0.00 0.46 0.00 93 1013.0
20260505020333 10 339 12.9 25.7 0.00 0.46 0.00 93 1013.0
20260505015908 10 310 12.9 24.1 0.00 0.46 0.00 93 1013.0
20260505014846 10 5 11.3 27.4 0.00 0.46 0.00 93 1013.0
20260505014335 10 330 14.5 27.4 0.00 0.46 0.00 93 1013.0
20260505013832 10 340 17.7 27.4 0.00 0.46 0.00 93 1013.1
20260505013333 10 353 16.1 32.2 0.00 0.46 0.00 93 1013.1
20260505012834 11 330 16.1 32.2 0.00 0.46 0.00 93 1013.2
20260505012335 11 347 16.1 27.4 0.00 0.46 0.00 93 1013.1
20260505011840 11 330 16.1 27.4 0.00 0.46 0.00 93 1013.2
20260505011331 11 5 12.9 25.7 0.00 0.46 0.00 93 1013.2
20260505010832 11 358 12.9 29.0 0.00 0.46 0.00 93 1013.2
20260505010339 11 317 14.5 29.0 0.00 0.46 0.00 93 1013.3
20260505005832 11 335 14.5 30.6 0.00 0.46 0.00 93 1013.4
20260505005334 11 343 16.1 30.6 0.00 0.46 0.00 93 1013.4
20260505004836 11 335 14.5 24.1 0.00 0.46 0.00 93 1013.4
20260505004333 11 0 14.5 24.1 0.00 0.46 0.00 93 1013.4
20260505003831 11 341 12.9 24.1 0.00 0.46 0.00 93 1013.4
20260505003332 11 330 12.9 24.1 0.00 0.46 0.00 93 1013.4
20260505002833 11 356 14.5 27.4 0.00 0.46 0.00 93 1013.5
20260505002416 11 303 14.5 27.4 0.00 0.46 0.00 92 1013.5
20260505001406 11 4 14.5 29.0 0.00 0.46 0.00 93 1013.6
20260505000328 11 325 14.5 27.4 0.00 0.46 0.00 93 1013.6
20260504235825 11 325 14.5 27.4 0.00 0.46 0.00 93 1013.6
20260504235325 11 325 14.5 30.6 0.00 0.46 0.00 93 1013.6
20260504234915 11 341 14.5 30.6 0.00 0.46 0.00 93 1013.6
20260504233824 12 347 12.9 27.4 0.00 0.46 0.00 94 1013.7
20260504233326 12 300 11.3 24.1 0.00 0.46 0.00 94 1013.7
20260504232902 12 349 11.3 22.5 0.00 0.46 0.00 94 1013.7
20260504231825 12 347 12.9 24.1 0.00 0.46 0.00 94 1013.8
20260504231325 12 325 12.9 27.4 0.00 0.46 0.00 94 1013.9
20260504230825 12 8 14.5 27.4 0.00 0.46 0.00 94 1013.9
20260504230322 12 341 14.5 27.4 0.00 0.46 0.00 94 1013.8
20260504225823 12 325 14.5 27.4 0.00 0.46 0.00 94 1013.9
20260504225323 12 354 11.3 20.9 0.00 0.46 0.00 94 1013.9
20260504224822 12 339 9.7 17.7 0.00 0.46 0.00 94 1013.9
20260504224317 12 325 11.3 20.9 0.00 0.46 0.00 94 1013.9
20260504223819 12 342 11.3 20.9 0.00 0.46 0.00 94 1014.0
20260504223317 12 325 11.3 19.3 0.00 0.46 0.00 94 1014.0
20260504222816 12 316 11.3 22.5 0.00 0.46 0.00 94 1014.0
20260504222355 12 349 11.3 22.5 0.00 0.46 0.00 94 1014.0
20260504221316 12 320 12.9 20.9 0.00 0.46 0.00 94 1014.1
20260504220815 12 325 12.9 20.9 0.00 0.46 0.00 94 1014.1
20260504220351 12 346 11.3 19.3 0.00 0.46 0.00 94 1014.1
20260504215354 12 31 11.3 20.9 0.00 0.46 0.46 94 1014.1
20260504214316 12 325 11.3 25.7 0.00 0.46 0.46 93 1014.2
20260504213815 12 343 11.3 25.7 0.00 0.46 0.46 93 1014.2
20260504213318 13 345 11.3 20.9 0.00 0.46 0.46 93 1014.2
20260504212821 13 330 12.9 24.1 0.00 0.46 0.46 93 1014.3
20260504212318 13 318 12.9 24.1 0.00 0.46 0.46 93 1014.3
20260504211814 13 325 11.3 22.5 0.00 0.46 0.46 93 1014.3
20260504211316 13 344 12.9 22.5 0.00 0.46 0.46 93 1014.3
20260504210815 13 10 12.9 25.7 0.00 0.46 0.46 93 1014.4
20260504210315 13 325 12.9 25.7 0.00 0.46 0.46 93 1014.4
20260504205816 13 347 11.3 24.1 0.00 0.46 0.46 93 1014.3
20260504205318 13 64 11.3 24.1 0.00 0.46 0.46 93 1014.4
20260504204900 13 310 9.7 22.5 0.00 0.46 0.46 93 1014.4
20260504203812 13 325 11.3 22.5 0.00 0.46 0.46 92 1014.4
20260504203313 13 330 9.7 22.5 0.00 0.46 0.46 92 1014.4
20260504202811 13 335 9.7 22.5 0.00 0.46 0.46 92 1014.4
20260504202350 13 295 9.7 17.7 0.00 0.46 0.46 92 1014.3
20260504201436 13 6 11.3 24.1 0.00 0.46 0.46 92 1014.3
20260504195807 13 26 14.5 29.0 0.00 0.46 0.46 92 1014.2
20260504195316 13 0 14.5 29.0 0.00 0.46 0.46 93 1014.2
20260504194931 13 325 12.9 29.0 0.00 0.46 0.46 93 1014.1
20260504193808 13 344 12.9 24.1 0.00 0.46 0.46 93 1014.1
20260504193306 13 14 12.9 24.1 0.00 0.46 0.46 93 1014.1
20260504192906 13 9 14.5 24.1 0.00 0.46 0.46 93 1014.1
20260504191805 13 10 12.9 30.6 0.00 0.46 0.46 92 1014.0
20260504191306 14 341 11.3 20.9 0.00 0.46 0.46 93 1013.9
20260504190806 14 0 11.3 22.5 0.00 0.46 0.46 93 1013.8
20260504190305 14 341 11.3 24.1 0.00 0.46 0.46 93 1013.7
20260504185806 14 16 12.9 24.1 0.00 0.46 0.46 93 1013.7
20260504185304 14 346 11.3 20.9 0.00 0.46 0.46 93 1013.7
20260504184807 14 325 9.7 20.9 0.00 0.46 0.46 93 1013.7
20260504184303 14 335 11.3 24.1 0.00 0.46 0.46 93 1013.7
20260504183802 14 7 11.3 24.1 0.00 0.48 0.46 93 1013.7
20260504183302 14 349 11.3 24.1 0.00 0.51 0.46 93 1013.7
20260504182804 14 316 11.3 24.1 0.00 0.51 0.46 93 1013.6
20260504182334 15 10 11.3 20.9 0.00 0.51 0.46 93 1013.7
20260504181304 15 13 12.9 25.7 0.00 0.51 0.46 93 1013.6
20260504180804 15 330 12.9 24.1 0.00 0.51 0.46 93 1013.5
20260504180304 15 343 11.3 20.9 0.00 0.51 0.46 94 1013.5
20260504175803 15 335 11.3 20.9 0.00 0.51 0.46 94 1013.4
20260504175304 15 23 9.7 20.9 0.00 0.51 0.46 94 1013.5
20260504174804 15 353 9.7 17.7 0.00 0.51 0.46 94 1013.5
20260504174307 15 359 9.7 17.7 0.00 0.51 0.46 94 1013.5
20260504173804 15 325 9.7 22.5 0.00 0.51 0.46 94 1013.6
20260504173306 15 359 11.3 22.5 0.00 0.53 0.46 94 1013.5
20260504172804 15 349 12.9 20.9 0.00 0.53 0.46 94 1013.5
20260504172303 15 335 11.3 20.9 0.00 0.53 0.46 94 1013.6
20260504171803 15 320 9.7 17.7 0.00 0.53 0.46 93 1013.5
20260504171301 15 293 8.0 16.1 0.00 0.53 0.46 93 1013.5
20260504170801 15 330 8.0 17.7 0.00 0.53 0.46 93 1013.4
20260504170316 15 314 8.0 17.7 0.00 0.53 0.46 93 1013.5
20260504160301 16 310 3.2 8.0 0.08 0.64 0.46 92 1013.5
20260504150746 16 263 3.2 6.4 0.05 0.58 0.41 92 1013.5
20260504150245 16 294 3.2 6.4 0.03 0.53 0.36 92 1013.5
20260504141243 16 29 4.8 6.4 0.33 0.74 0.33 93 1013.8
20260504140743 16 34 4.8 9.7 0.33 0.76 0.33 93 1013.8
20260504140240 16 51 3.2 9.7 0.33 0.76 0.33 93 1013.8
20260504120311 18 75 4.8 11.3 0.00 0.48 0.00 86 1014.1
20260504110318 17 354 1.6 6.4 0.00 0.61 0.00 89 1014.4